METEOR-M 2

Last updated on Mon Sep 15 2025 00:02:22 GMT+0000 (Coordinated Universal Time)

1 40069U 14037A 25257.41689752 .00000111 00000+0 69942-4 0 9993 2 40069 98.4810 238.4699 0006989 111.4358 248.7566 14.21325340580148
UTC large
Height (km)
Speed (km/s)
/
Latitude / Longitude
Inclination (degrees)
Orbital Period (minutes)
Azimuth
Elevation
Range (km)
Doppler Factor

Next 0 passes for location: London (51.5072 / 0.1276)

Sorry there are no passes over London.